Weather History for Shishmaref, AK

Change the Weather History Date:

Saturday, April 26, 2014

  Actual Average Record
Temperature  
Mean Temperature 20 °F -  
Max Temperature 26 °F 22 °F 37 °F (1997)
Min Temperature 15 °F 10 °F -14 °F (1999)
Degree Days  
Heating Degree Days 44    
Moisture  
Dew Point 21 °F    
Average Humidity 94    
Maximum Humidity 100    
Minimum Humidity 86    
Precipitation  
Precipitation 0.00 in - - ()
Sea Level Pressure  
Sea Level Pressure 29.59 in    
Wind  
Wind Speed 1 mph (North)    
Max Wind Speed 6 mph    
Max Gust Speed 23 mph    
Visibility 1 miles    
Events      
Averages and records for this station are not official NWS values.
T = Trace of Precipitation, MM = Missing Value Source: NWS Daily Summary

Daily Weather History Graph

Daily Weather History Graph

Search for Another Location

Airport:

Trip Planner

Search our weather history database for the weather conditions in past years. The results will help you decide how hot, cold, wet, or windy it might be!

Date:

Astronomy

Apr. 26, 2014 Rise Set
Actual Time 6:38 AM AKDT 11:28 PM AKDT
Civil Twilight 5:23 AM AKDT 12:45 AM AKDT
Nautical Twilight 3:34 AM AKDT 2:29 AM AKDT
Astronomical Twilight Sun does not rise Sun does not rise
Moon 6:24 AM AKDT (4/26) 8:10 PM AKDT (4/26)
Length of Visible Light 19h 22m
Length of Day
16h 50m
Waning Crescent, 7% of the Moon is Illuminated
Apr 26
Waning Crescent
Apr 28
New
May 6
First Quarter
May 14
Full
May 21
Last Quarter

Hourly Weather History & Observations

Time (AKDT) Temp. Windchill Dew Point Humidity Pressure Visibility Wind Dir Wind Speed Gust Speed Precip Events Conditions
12:16 AM 21.2 °F - 21.2 °F 100% 29.55 in 0.2 mi Calm Calm - N/A   Overcast
12:36 AM 21.2 °F - 21.2 °F 100% 29.55 in 0.2 mi Calm Calm - N/A   Overcast
12:56 AM 21.2 °F - 21.2 °F 100% 29.56 in 0.5 mi Calm Calm - N/A   Overcast
1:16 AM 21.2 °F - 19.4 °F 93% 29.56 in 0.2 mi Calm Calm - N/A   Overcast
1:36 AM 21.2 °F - 21.2 °F 100% 29.56 in 0.2 mi Calm Calm - N/A   Overcast
1:56 AM 21.2 °F 16.4 °F 19.4 °F 93% 29.56 in 0.5 mi North 3.5 mph - N/A   Overcast
2:16 AM 21.2 °F - 19.4 °F 93% 29.57 in 0.5 mi Calm Calm - N/A   Overcast
2:36 AM 21.2 °F - 19.4 °F 93% 29.56 in 0.2 mi Calm Calm - N/A   Overcast
2:56 AM 19.4 °F - 17.6 °F 93% 29.57 in 0.5 mi Calm Calm - N/A   Overcast
3:16 AM 21.2 °F - 19.4 °F 93% 29.57 in 0.5 mi Calm Calm - N/A   Overcast
3:36 AM 19.4 °F 11.5 °F 17.6 °F 93% 29.57 in 0.5 mi NE 5.8 mph - N/A   Overcast
3:56 AM 19.4 °F - 17.6 °F 93% 29.57 in 0.5 mi Calm Calm - N/A   Overcast
4:16 AM 19.4 °F - 17.6 °F 93% 29.57 in 0.5 mi Calm Calm - N/A   Overcast
4:36 AM 19.4 °F 14.3 °F 17.6 °F 93% 29.57 in 0.2 mi North 3.5 mph - N/A   Overcast
4:56 AM 17.6 °F - 15.8 °F 93% 29.57 in 0.8 mi Calm Calm - N/A   Overcast
5:16 AM 17.6 °F - 15.8 °F 93% 29.57 in 0.8 mi Calm Calm - N/A   Overcast
5:36 AM 17.6 °F - 15.8 °F 93% 29.57 in 0.5 mi Calm Calm - N/A   Overcast
5:56 AM 17.6 °F - 15.8 °F 93% 29.57 in 0.5 mi Calm Calm - N/A   Overcast
6:16 AM 17.6 °F - 15.8 °F 93% 29.57 in 0.2 mi Calm Calm - N/A   Overcast
6:36 AM 17.6 °F - 14.0 °F 86% 29.57 in 0.5 mi Calm Calm - N/A   Overcast
6:56 AM 17.6 °F - 15.8 °F 93% 29.57 in 0.5 mi Calm Calm - N/A   Overcast
7:16 AM 15.8 °F - 14.0 °F 93% 29.57 in 1.0 mi Calm Calm - N/A   Overcast
7:36 AM 15.8 °F - 14.0 °F 93% 29.58 in 0.2 mi Calm Calm - N/A   Overcast
7:56 AM 17.6 °F - 15.8 °F 93% 29.58 in 0.2 mi Calm Calm - N/A   Overcast
8:16 AM 17.6 °F - 15.8 °F 93% 29.58 in 0.2 mi Calm Calm - N/A   Overcast
8:36 AM 19.4 °F - 17.6 °F 93% 29.58 in 0.2 mi Calm Calm - N/A   Overcast
8:56 AM 19.4 °F 12.8 °F 17.6 °F 93% 29.59 in 0.2 mi North 4.6 mph - N/A   Overcast
9:16 AM 19.4 °F 12.8 °F 17.6 °F 93% 29.59 in 0.2 mi North 4.6 mph - N/A   Overcast
9:36 AM 19.4 °F 12.8 °F 17.6 °F 93% 29.59 in 0.2 mi North 4.6 mph - N/A   Overcast
9:56 AM 19.4 °F 12.8 °F 17.6 °F 93% 29.58 in 0.2 mi North 4.6 mph - N/A   Overcast
10:16 AM 19.4 °F 14.3 °F 17.6 °F 93% 29.58 in 0.2 mi NNE 3.5 mph - N/A   Overcast
10:36 AM 19.4 °F 14.3 °F 17.6 °F 93% 29.59 in 0.2 mi North 3.5 mph - N/A   Overcast
10:56 AM 19.4 °F - 17.6 °F 93% 29.59 in 0.5 mi Calm Calm - N/A   Overcast
11:16 AM 19.4 °F - 19.4 °F 100% 29.59 in 0.2 mi Calm Calm - N/A   Overcast
11:36 AM 21.2 °F 14.9 °F 19.4 °F 93% 29.59 in 0.5 mi North 4.6 mph - N/A   Overcast
11:56 AM 21.2 °F 14.9 °F 19.4 °F 93% 29.59 in 0.5 mi North 4.6 mph - N/A   Overcast
12:16 PM 21.2 °F 14.9 °F 19.4 °F 93% 29.60 in 0.8 mi NNE 4.6 mph - N/A   Overcast
12:36 PM 21.2 °F 14.9 °F 19.4 °F 93% 29.60 in 0.2 mi North 4.6 mph - N/A   Overcast
12:56 PM 23.0 °F 17.0 °F 21.2 °F 93% 29.60 in 0.5 mi North 4.6 mph - N/A   Overcast
1:16 PM 23.0 °F 15.8 °F 21.2 °F 93% 29.59 in 0.5 mi North 5.8 mph - N/A   Overcast
1:36 PM 24.8 °F 19.1 °F 23.0 °F 93% 29.60 in 0.2 mi North 4.6 mph - N/A   Overcast
1:56 PM 24.8 °F - 23.0 °F 93% 29.60 in 0.5 mi Calm Calm - N/A   Overcast
2:16 PM 24.8 °F - 23.0 °F 93% 29.60 in 0.5 mi Calm Calm - N/A   Overcast
2:36 PM 24.8 °F 20.5 °F 24.8 °F 100% 29.60 in 0.5 mi NNE 3.5 mph - N/A   Overcast
2:56 PM 24.8 °F - 21.2 °F 86% 29.60 in 0.5 mi Calm Calm - N/A   Overcast
3:16 PM 24.8 °F 20.5 °F 24.8 °F 100% 29.60 in 10.0 mi North 3.5 mph - N/A   Overcast
3:36 PM 24.8 °F - 23.0 °F 93% 29.60 in 10.0 mi Calm Calm - N/A   Overcast
3:56 PM 24.8 °F - 24.8 °F 100% 29.60 in 10.0 mi Calm Calm - N/A   Overcast
4:16 PM 24.8 °F - 23.0 °F 93% 29.60 in 0.8 mi Calm Calm - N/A   Overcast
4:36 PM 24.8 °F - 24.8 °F 100% 29.60 in 0.8 mi Calm Calm - N/A   Overcast
4:56 PM 26.6 °F - 24.8 °F 93% 29.60 in 0.5 mi Calm Calm - N/A   Overcast
5:16 PM 26.6 °F - 24.8 °F 93% 29.60 in 0.5 mi Calm Calm - N/A   Overcast
5:36 PM 26.6 °F - 24.8 °F 93% 29.60 in 0.8 mi Calm Calm - N/A   Overcast
5:56 PM 26.6 °F - 24.8 °F 93% 29.60 in 0.8 mi Calm Calm - N/A   Overcast
6:16 PM 26.6 °F - 26.6 °F 100% 29.60 in 0.5 mi Calm Calm - N/A   Overcast
6:36 PM 26.6 °F 22.6 °F 26.6 °F 100% 29.61 in 0.8 mi North 3.5 mph - N/A   Overcast
6:56 PM 26.6 °F 22.6 °F 26.6 °F 100% 29.61 in 0.8 mi NNE 3.5 mph - N/A   Overcast
7:16 PM 26.6 °F - 26.6 °F 100% 29.61 in 0.5 mi Calm Calm - N/A   Overcast
7:36 PM 26.6 °F 22.6 °F 26.6 °F 100% 29.61 in 0.2 mi North 3.5 mph - N/A   Overcast
7:56 PM 26.6 °F - 24.8 °F 93% 29.61 in 0.2 mi Calm Calm - N/A   Overcast
8:16 PM 26.6 °F - 26.6 °F 100% 29.61 in 0.2 mi Calm Calm - N/A   Overcast
8:36 PM 26.6 °F - 24.8 °F 93% 29.62 in 0.2 mi Calm Calm - N/A   Overcast
8:56 PM 26.6 °F - 24.8 °F 93% 29.62 in 0.2 mi Calm Calm - N/A   Overcast
9:16 PM 26.6 °F - 24.8 °F 93% 29.62 in 0.2 mi Calm Calm - N/A   Overcast
9:36 PM 26.6 °F 22.6 °F 24.8 °F 93% 29.62 in 0.2 mi NNW 3.5 mph - N/A   Overcast
9:56 PM 24.8 °F - 24.8 °F 100% 29.63 in 0.2 mi Calm Calm - N/A   Overcast
10:16 PM 24.8 °F 20.5 °F 24.8 °F 100% 29.63 in 0.2 mi NW 3.5 mph 23.0 mph N/A   Overcast
10:36 PM 24.8 °F - 23.0 °F 93% 29.63 in 0.2 mi Calm Calm - N/A   Overcast
10:56 PM 24.8 °F 17.9 °F 23.0 °F 93% 29.64 in 0.2 mi NW 5.8 mph - N/A   Overcast
11:16 PM 24.8 °F 19.1 °F 21.2 °F 86% 29.64 in 0.2 mi NW 4.6 mph - N/A   Overcast
11:36 PM 24.8 °F 19.1 °F 23.0 °F 93% 29.64 in 0.2 mi NW 4.6 mph - N/A   Overcast
11:56 PM 21.2 °F 14.9 °F 19.4 °F 93% 29.64 in 0.2 mi NW 4.6 mph - N/A   Overcast